Погода в Тугиянах

Россия / Ханты-Мансийский автономный округ - Югра     63°33′25″N   65°48′31″E
темп.,
°C
ветер,
м/с
пор.,
м/с
влажн.,
%
обл.,
%
осадки,
мм/ч
давл.,
гПа
погр.,
м
14 мая, пт
пт1423:00+9ююв47522 0.0 1022106
02:00+10ююз515535 0.0 1020286
05:00+12ююз616600 0.1 1016333
08:00+18юз715580 0.0 1013464
11:00+25з813360 0.0 10122042
14:00+27з9142744 0.0 10113577
17:00+25зсз813335 0.0 10111981
20:00+20з125631 0.3 1012107
15 мая, сб
сб1523:00+16св116997 0.4 101129
02:00+13в1391100 5.4 1011164
05:00+11всв468517 5.4 1013297
08:00+12в457138 0.0 1013468
11:00+14в4468100 0.0 1013786
14:00+11всв5575100 0.0 1014424
17:00+10св4474100 0.0 1015429
20:00+8св4581100 0.0 1015460
16 мая, вс
вс1623:00+6всв3486100 0.0 1016280
02:00+5св2391100 0.0 1015110
05:00+5всв2389100 0.0 1015176
08:00+5с2293100 4.8 1015214
11:00+6ссв238683 6.4 1015417
14:00+10с2273100 0.0 1015732
17:00+8с3377100 0.0 1016496
20:00+8св2380100 0.0 1015393
17 мая, пн
пн1723:00+6всв3489100 0.1 1014194
02:00+6всв3591100 0.1 1015214
05:00+5всв3594100 0.8 1014245
08:00+5всв4694100 2.6 1014289
11:00+5всв5992100 3.6 1014378
14:00+5всв5994100 1.6 1014369
17:00+5всв5995100 3.8 1014361
20:00+5в3994100 0.9 1015349
18 мая, вт
вт1823:00+5всв3894100 1.4 1015344
02:00+5всв3792100 0.3 1016240
05:00+4всв4884100 0.3 1016268
08:00+5всв4771100 0.0 1017342
11:00+10всв455372 0.0 10191087
14:00+13св34405 0.0 10191888
17:00+13ссв443648 0.0 10201937
20:00+10св354677 0.0 1021265